Regional Weather Roundup
Issued by NWS

Home | Current Version | Previous Version | Graphics & Text | Print | Product List | Glossary On
Versions: 1 2 3 4 5 6 7 8 9 10 11 12 13 14 15 16 17 18 19 20 21 22 23 24 25 26 27 28 29 30 31 32 33 34 35 36 37 38 39 40 41 42 43 44 45 46 47 48 49 50
000
ASUS43 KLOT 291610
RWRIL

ILLINOIS REGIONAL WEATHER ROUNDUP
NATIONAL WEATHER SERVICE CHICAGO/ROMEOVILLE IL
1100 AM CDT TUE JUL 29 2014

NOTE: "FAIR" INDICATES FEW OR NO CLOUDS BELOW 12,000 FEET WITH NO
SIGNIFICANT WEATHER AND/OR OBSTRUCTIONS TO VISIBILITY.

* THESE STATIONS ARE NOT UNDER NWS QUALITY CONTROL. THEY ALSO MAY NOT
  REPORT WEATHER SUCH AS PRECIPITATION OR FOG.

ILZ001-002-007-009-015-016-024-291700-
NORTHWEST ILLINOIS

CITY           SKY/WX    TMP DP  RH WIND       PRES   REMARKS
MOLINE         SUNNY     74  58  57 W6        30.11S
STERLING*      SUNNY     75  59  57 NW8       30.10S
SAVANNA*       SUNNY     74  56  52 NW8       30.10S
$$

ILZ003-004-008-010-011-017-018-291700-
NORTH CENTRAL ILLINOIS

CITY           SKY/WX    TMP DP  RH WIND       PRES   REMARKS
ROCKFORD       SUNNY     74  56  53 NW9       30.08F
FREEPORT*      SUNNY     73  60  65 W8        30.11S
ROCHELLE*      SUNNY     74  55  50 NW12G17   30.08S
DE KALB*       SUNNY     71  57  62 W9        30.08S
PERU*          SUNNY     73  58  59 W9        30.09F
$$

ILZ005-006-012>014-019>023-291700-
NORTHEAST ILLINOIS

CITY           SKY/WX    TMP DP  RH WIND       PRES   REMARKS
CHICAGO-OHARE  MOSUNNY   74  53  48 NW12      30.04S
CHICAGO-MIDWAY MOSUNNY   75  55  49 W13       30.04S
AURORA         SUNNY     74  56  53 NW8       30.07S
LANSING*       SUNNY     74  54  49 NW9       30.04S
JOLIET*        SUNNY     74  53  48 NW6       30.07S
WAUKEGAN       SUNNY     73  56  54 VRB7G17   30.03S
DUPAGE AIRPORT SUNNY     75  55  49 NW10      30.05S
KANKAKEE*      MOSUNNY   73  60  64 W9        30.07F
WHEELING       SUNNY     75  55  49 W12       30.05S
MORRIS*        SUNNY     74  57  55 NW8       30.06F
ROMEOVILLE*    SUNNY     73  55  53 NW9       30.06S
NORTHERLY ISL    N/A     72  52  49 W5          N/A
$$

LMZ740>746-291700-
SOUTHERN LAKE MICHIGAN

STATION/POSITION SKY/WX   TEMP    WIND        PRES    VSBY  WAVE
                          AIR SEA DIR/SP/G                  HT/PER
                          (F)     (DEG/KT/KT) (MB)    (MI)  (FT/S)
SOUTHERN BUOY              61 61  300/ 10/ 12 1017.0R         1
WAUKEGAN HARBOR            70     330/  9/ 13   N/A
HARRISON CRIB              66      20/  7/  7   N/A
BURNHAM HARBOR             73     260/  8/ 13   N/A
CALUMET HARBOR             73     290/  8/ 11 1015.9S
MICHIGAN CITY              65     250/  9/ 12   N/A
MICHIGAN CITY 6N           66 68  300/  6/  8   N/A           2/ 3
ST. JOSEPH                 64 67  280/ 10/ 12   N/A           2/ 3
$$

ILZ025>027-034>036-040-047-049-050-058-095>099-291700-
WEST-CENTRAL ILLINOIS

CITY           SKY/WX    TMP DP  RH WIND       PRES   REMARKS
QUINCY         MOSUNNY   72  58  61 NW8       30.15S
GALESBURG*     SUNNY     75  60  58 NW8       30.13R
MACOMB*        SUNNY     71  57  61 NW8       30.16S
JACKSONVILLE*  SUNNY     74  58  56 N7        30.15S
PITTSFIELD*    MOSUNNY   73  59  61 W8        30.16S
$$

ILZ028>032-037-038-041>044-048-051>054-059>061-291700-
CENTRAL ILLINOIS

CITY           SKY/WX    TMP DP  RH WIND       PRES   REMARKS
PONTIAC        SUNNY     73  59  60 NW8       30.08F
DECATUR        SUNNY     74  56  53 NW9       30.12S
PEORIA         SUNNY     75  55  49 VRB7      30.12S
LACON*         SUNNY     73  56  55 NW9       30.09F
LINCOLN*       SUNNY     75  57  54 NW7       30.10S
SPRINGFIELD    SUNNY     74  56  53 NW8       30.13S
TAYLORVILLE    SUNNY     72  55  56 NW7       30.13S
$$

ILZ033-039-045-046-055>057-062-063-291700-
EAST-CENTRAL ILLINOIS

CITY           SKY/WX    TMP DP  RH WIND       PRES   REMARKS
CHAMPAIGN      SUNNY     72  59  63 NW10      30.10S
DANVILLE*      SUNNY     70  60  71 W7        30.07S
RANTOUL*       SUNNY     73  56  55 NW10      30.10S
MATTOON        SUNNY     72  57  59 NW13      30.10S
PARIS*         SUNNY     71  60  70 W5        30.10S
$$

ILZ079-100>102-291700-
SOUTHWEST ILLINOIS

CITY           SKY/WX    TMP DP  RH WIND       PRES   REMARKS
ALTON          SUNNY     72  63  73 W7        30.16R
BELLEVILLE     SUNNY     75  56  51 NW8       30.14S
CAHOKIA*       MOSUNNY   76  55  48 NW9       30.15S
SPARTA*        SUNNY     72  54  53 NW3       30.16S
$$

ILZ064>066-069>071-074>076-080>082-084>086-088>090-092>094-291700-
SOUTH-CENTRAL ILLINOIS

CITY           SKY/WX    TMP DP  RH WIND       PRES   REMARKS
CARBONDALE     SUNNY     74  53  48 NW8       30.15S
CAIRO*         SUNNY     75  55  48 N5        30.16R
EFFINGHAM*     SUNNY     73  51  45 NW12G17   30.12S
MARION         MOSUNNY   73  54  49 N9        30.16R
MT. VERNON     SUNNY     73  55  53 N3        30.15S
CENTRALIA*     SUNNY     81  53  37 N8        30.14S HX  80
SALEM*         SUNNY    N/A N/A N/A NW6       30.14S
METROPOLIS*    SUNNY     74  47  37 N5        30.14S
$$

ILZ067-068-072-073-078-083-087-091-291700-
SOUTHEAST ILLINOIS

CITY           SKY/WX    TMP DP  RH WIND       PRES   REMARKS
FLORA*         SUNNY     72  55  53 NW10      30.13S
FAIRFIELD*     SUNNY     73  57  56 NW5       30.13R
HARRISBURG*    SUNNY     73  55  53 NW8       30.15S
ROBINSON*      SUNNY     73  61  64 NW10      30.11S
CARMI*         SUNNY     73  61  64 NW8       30.12S
$$

ABBREVIATIONS USED IN REMARKS
   TC - TEMPERATURE IN CELSIUS
  WCI - WIND CHILL INDEX
   HX - HEAT INDEX
  VSB - VISIBILITY
$$




USA.gov is the U.S. government's official web portal to all federal, state and local government web resources and services.